Wind_Speed
23 23 24 26 28 26 29 26 22 21 19 18 19 18 19 25 25 22 21 20 13 13 19 18 17 19 23 27 28 26 27 27 27 31 31 31 30 29 26 25 25 26 26 27 27 26 27 28 28
25 26 27 28 28 29 30 25 24 23 22 20 19 16 20 26 27 29 30 27 25 19 22 22 19 20 22 26 29 28 27 27 27 27 28 28 26 26 25 24 24 25 27 27 27 26 24 26 28
28 29 30 30 30 30 30 27 27 23 22 20 20 22 24 26 30 33 30 30 28 24 23 25 23 19 25 29 33 31 29 27 26 25 26 26 24 22 23 23 23 24 25 26 23 23 24 23 23
31 32 31 33 30 31 31 29 28 25 27 25 23 26 24 24 26 34 37 31 32 28 27 25 24 22 25 34 37 34 31 28 28 28 28 28 26 21 22 24 23 22 24 24 23 23 22 23 25
33 34 35 33 32 35 34 33 31 33 33 29 28 29 25 26 30 29 27 29 24 22 28 25 24 25 28 34 37 38 32 29 29 30 31 32 31 29 25 25 26 24 25 25 24 25 23 20 23
37 36 36 33 33 37 36 36 35 37 35 34 31 33 28 30 33 35 27 25 24 27 24 20 23 25 31 34 34 35 34 30 30 31 32 32 33 33 32 30 28 25 27 27 26 24 22 21 19
38 39 36 35 36 39 37 44 44 41 38 39 34 34 35 30 32 32 33 32 31 26 23 21 26 27 32 37 35 29 32 30 29 31 33 33 33 35 35 33 31 27 28 29 29 24 21 21 22
41 41 39 39 39 39 41 42 42 39 39 37 37 38 39 34 35 36 34 34 31 31 30 28 31 30 35 38 40 28 30 29 30 31 33 32 34 35 36 35 33 30 29 28 29 27 22 20 22
46 46 43 41 41 39 41 41 41 41 42 41 40 42 42 44 44 45 41 41 38 37 37 37 29 33 39 40 42 34 31 28 30 32 34 33 33 35 35 35 33 30 31 29 29 26 23 25 23
52 51 43 42 41 41 43 47 47 49 47 47 48 47 47 42 38 38 39 40 42 37 38 35 37 42 41 46 46 44 48 33 29 34 34 35 33 33 34 34 34 31 32 29 29 28 26 26 26
56 58 46 43 44 45 49 53 51 52 52 49 48 43 39 36 38 41 38 44 43 37 37 41 44 46 46 49 47 48 51 36 33 35 35 35 33 31 33 33 32 33 32 30 30 31 30 30 30
58 57 51 46 47 49 51 52 55 54 52 49 47 44 42 43 42 37 43 43 38 35 37 40 45 48 48 49 49 51 45 37 38 37 35 35 33 31 33 32 33 32 32 31 33 33 34 34 32
60 59 55 50 48 50 53 58 54 59 55 51 51 48 47 46 38 41 41 38 34 35 38 44 48 50 51 52 51 52 40 36 38 38 35 35 32 31 31 30 33 32 35 35 36 38 38 37 36
62 65 58 54 52 50 56 56 59 60 54 53 54 53 50 48 47 50 44 38 37 40 44 49 50 49 52 53 49 43 35 35 35 34 34 34 31 30 31 29 31 33 35 39 36 38 40 38 36
67 65 63 61 54 56 53 61 62 56 51 54 52 51 53 52 49 48 39 43 41 44 46 47 49 46 46 48 45 39 36 35 35 34 35 33 31 30 33 31 32 35 36 42 38 40 40 37 35
78 75 72 61 60 63 61 66 62 56 52 53 55 55 55 53 48 45 40 39 44 45 44 47 45 42 44 42 42 40 37 33 34 34 34 33 32 31 33 33 36 36 38 41 43 40 39 37 36
77 73 80 71 62 62 68 63 59 59 57 58 57 55 55 53 51 44 38 43 46 47 48 47 43 42 43 39 40 37 33 32 34 35 32 32 31 33 36 37 39 35 40 41 39 40 40 37 33
74 71 70 81 73 71 69 74 66 64 60 57 58 55 51 49 47 40 42 41 45 44 45 41 42 44 42 42 39 31 31 34 35 35 31 30 31 36 36 38 38 37 37 39 38 39 38 36 34
65 68 69 66 76 78 75 72 67 64 62 58 56 53 46 42 36 37 39 41 43 42 37 37 39 39 39 37 32 31 32 33 35 33 29 28 34 34 37 35 34 37 38 36 36 38 33 29 24
64 66 64 62 59 71 77 71 67 65 57 53 49 49 47 43 40 43 41 40 37 36 36 37 37 35 38 35 31 31 31 30 32 28 27 32 33 36 33 30 33 36 31 34 34 30 30 30 30
66 66 64 62 58 59 61 67 63 59 56 50 45 40 38 38 41 39 36 36 36 37 37 34 38 38 34 35 32 30 26 27 25 25 29 30 34 32 29 30 33 31 30 28 27 29 29 25 23
70 66 63 61 59 57 57 66 58 50 49 46 35 27 28 32 32 32 31 35 37 34 32 32 33 34 35 36 31 25 25 22 21 27 28 31 29 27 28 31 31 28 24 22 25 26 21 19 19
69 66 63 61 58 56 56 60 53 42 43 33 25 24 27 30 31 30 34 37 33 30 31 31 30 34 33 31 27 23 21 20 24 27 30 26 24 25 29 28 27 24 19 20 22 18 12 11 12
68 66 66 64 62 61 53 55 50 38 33 29 31 28 28 32 32 33 33 29 27 28 28 31 33 32 31 25 25 20 18 23 25 28 25 21 22 25 25 24 23 21 16 18 17 12 10 10 9
66 65 62 63 64 58 55 54 41 31 34 31 30 30 32 31 32 29 24 25 25 26 27 28 29 29 25 20 17 16 20 23 26 25 19 19 22 23 20 22 19 14 13 15 12 9 8 9 8
63 64 64 65 62 57 51 54 42 32 32 28 17 33 34 34 31 23 23 25 23 26 27 27 25 24 18 16 16 18 20 23 24 19 18 19 21 18 18 18 15 13 13 13 10 9 10 8 7
52 61 56 59 63 59 56 43 38 37 35 27 26 22 33 30 26 23 25 22 23 22 22 23 23 19 16 14 17 18 20 21 18 16 17 19 16 14 17 15 13 14 14 12 10 9 10 6 6
40 47 52 56 57 58 53 45 41 38 39 29 32 31 25 20 21 19 20 23 21 18 18 19 17 15 14 15 17 18 19 17 15 16 19 18 13 13 16 16 13 14 12 11 12 12 11 10 8
38 45 49 52 53 56 53 48 44 42 41 33 33 37 32 27 22 22 22 19 16 15 16 15 14 16 14 16 17 16 16 14 14 17 19 17 15 15 16 16 12 12 9 10 14 14 13 14 11
34 43 49 52 52 54 54 52 51 47 43 32 36 35 27 19 24 22 20 16 15 13 14 16 14 13 13 15 14 14 14 14 17 19 17 16 15 15 13 14 10 8 9 10 15 16 12 9 9
Wind_Direction
231 229 216 212 209 206 206 215 217 223 230 239 254 271 294 303 303 291 287 275 280 301 321 325 338 340 346 342 343 340 335 336 332 322 323 322 316 311 305 300 297 300 302 304 302 299 295 290 284
229 228 222 213 210 208 208 220 222 223 233 245 262 276 289 296 296 293 283 279 280 286 307 322 323 331 338 345 343 336 331 327 327 330 323 316 312 308 300 293 292 294 302 309 308 303 299 294 288
227 226 223 214 209 211 216 218 226 229 242 248 265 279 290 293 291 282 287 269 272 278 296 317 319 329 337 347 342 334 335 331 329 329 320 319 320 309 297 295 293 299 301 303 306 307 307 301 297
227 222 221 217 205 210 215 223 228 236 239 247 263 283 285 278 295 275 269 265 274 272 282 314 318 321 335 338 340 333 335 331 327 325 327 326 328 314 300 297 299 304 302 301 302 305 304 299 296
229 224 220 212 200 216 219 221 225 234 239 247 261 274 268 262 279 283 286 268 267 266 292 309 317 322 333 334 332 330 330 330 328 328 330 330 327 326 317 305 303 304 304 305 305 308 312 300 290
230 227 220 214 205 212 219 227 230 233 239 249 258 267 264 270 274 274 277 278 266 280 300 306 309 315 327 328 327 324 323 325 325 323 326 326 325 323 319 310 305 307 309 308 310 307 310 309 303
232 227 223 213 208 214 220 230 231 229 238 244 253 267 262 269 272 267 270 281 291 288 299 300 295 307 319 320 323 321 318 317 317 317 320 321 322 319 315 309 304 305 309 306 308 309 306 307 309
232 231 223 216 207 213 222 232 234 235 242 247 255 263 262 267 272 278 282 281 291 296 299 300 301 305 312 312 312 323 319 310 310 311 313 313 316 314 311 307 302 300 306 302 304 307 312 312 310
231 230 225 219 212 210 223 234 240 245 245 248 255 255 261 265 272 280 288 293 292 296 299 300 297 304 306 306 307 317 318 301 299 305 305 307 309 309 309 304 299 297 302 297 301 302 310 314 313
229 233 226 224 220 216 218 230 241 244 246 252 257 259 265 271 275 282 289 287 287 298 304 301 300 301 306 305 309 319 320 306 293 300 303 304 306 305 305 299 294 296 298 295 303 303 306 314 312
231 232 228 225 224 219 221 226 237 244 248 252 258 261 259 268 284 288 291 293 289 299 298 299 301 303 307 304 308 314 316 304 296 300 303 301 304 304 302 293 291 293 296 294 301 303 308 313 310
232 230 230 227 227 226 225 226 233 239 245 249 254 253 259 272 282 285 288 292 292 297 302 302 300 299 299 300 304 310 307 300 294 296 299 304 305 304 301 296 293 297 297 299 301 306 309 310 308
235 230 227 228 230 228 225 234 232 238 241 248 252 255 261 270 271 284 288 288 283 290 298 299 296 297 296 297 299 304 298 294 293 293 296 304 304 304 294 290 293 295 297 297 298 307 307 307 306
238 236 231 231 228 226 234 235 238 235 237 242 244 250 259 268 272 275 280 270 275 283 287 287 291 296 294 292 296 296 294 293 293 293 297 302 300 300 290 290 293 294 294 294 298 303 302 302 301
239 243 240 229 227 227 232 236 239 241 236 245 246 249 253 259 270 273 268 260 266 272 275 282 287 289 288 289 289 287 291 295 299 299 300 300 297 296 292 292 290 294 293 295 305 298 297 299 296
240 239 239 234 235 234 227 242 242 240 246 249 251 253 261 272 265 269 271 273 276 277 277 277 281 285 288 287 281 285 289 300 296 298 300 298 293 296 292 292 296 297 298 301 298 296 297 294 294
242 243 242 240 236 238 240 241 243 248 254 258 261 261 267 265 268 260 265 267 272 273 266 270 279 284 282 279 278 286 294 295 289 293 297 294 293 295 291 292 297 299 298 297 296 295 293 293 291
243 243 243 243 238 239 240 244 249 257 258 259 259 260 257 262 263 258 257 263 271 269 269 275 279 279 277 278 281 290 299 296 286 294 293 291 290 289 289 295 296 300 297 297 295 291 292 294 292
245 244 243 244 243 240 243 246 248 250 253 255 257 257 257 263 261 256 256 264 265 267 270 267 271 273 277 276 285 295 293 286 285 290 290 287 286 287 291 295 301 301 298 295 293 295 293 289 289
238 241 242 243 246 245 244 248 249 255 256 257 255 250 251 254 255 254 257 257 260 263 266 267 270 273 271 281 286 284 289 290 287 287 284 283 286 289 294 301 300 301 298 300 303 302 296 291 286
232 237 240 241 242 246 246 245 248 253 257 258 254 251 251 255 253 247 243 243 247 253 260 269 267 269 275 280 282 286 287 287 286 284 285 284 288 293 300 302 303 303 305 304 304 298 296 293 288
228 232 236 239 240 242 247 246 243 249 254 255 256 259 249 245 246 238 239 246 249 256 267 263 268 273 276 278 284 289 284 285 280 284 283 288 293 299 300 305 304 305 306 310 315 317 308 299 289
227 229 232 235 238 239 241 248 239 240 247 253 257 242 240 237 237 235 237 244 253 262 259 264 268 273 273 282 284 284 285 276 282 285 289 291 297 302 308 308 304 308 301 313 321 316 312 303 294
224 225 229 231 235 237 239 245 239 240 244 242 241 237 237 236 234 238 246 253 255 257 263 270 270 272 279 284 282 274 272 279 286 288 290 296 303 309 309 306 307 305 301 315 317 315 315 312 310
221 224 226 231 232 237 236 241 238 235 240 239 237 238 237 236 239 244 242 242 246 252 265 276 272 273 285 276 274 268 274 285 287 290 293 302 308 309 311 307 302 301 301 311 316 324 336 337 330
220 222 224 229 230 233 235 238 231 231 237 235 232 233 233 235 238 242 241 239 246 260 277 279 280 284 279 268 265 272 281 288 293 294 299 309 308 307 305 303 300 301 305 309 308 323 314 319 334
221 222 222 227 230 230 233 235 231 225 222 240 246 252 230 236 237 231 233 244 255 268 279 284 284 278 264 266 275 278 284 289 292 292 302 303 300 316 311 304 298 295 305 304 310 312 325 309 313
222 222 222 223 226 228 231 230 226 224 227 212 221 217 205 214 224 233 237 247 258 277 285 279 271 261 256 270 276 282 284 293 284 290 297 296 285 314 327 309 286 288 292 291 295 309 317 326 322
222 223 223 222 222 226 228 228 227 226 231 218 224 229 236 238 228 229 239 247 269 274 272 260 255 257 262 274 278 284 296 285 285 291 296 290 277 292 318 308 282 286 285 292 308 313 310 316 301
225 220 223 224 220 222 224 223 228 225 226 218 221 224 227 225 228 234 239 249 258 253 259 250 254 250 267 276 281 295 290 286 292 294 292 287 280 298 311 309 285 284 291 318 324 308 304 310 295
Height
5865 5868 5869 5870 5873 5873 5871 5874 5877 5877 5878 5878 5879 5881 5881 5883 5885 5888 5888 5888 5889 5889 5890 5888 5886 5884 5881 5879 5875 5872 5870 5868 5865 5862 5860 5858 5856 5853 5850 5847 5846 5843 5841 5840 5838 5835 5834 5834 5833
5859 5863 5866 5866 5869 5871 5868 5872 5875 5875 5875 5876 5876 5876 5879 5881 5881 5881 5883 5883 5884 5885 5886 5886 5884 5881 5879 5875 5873 5870 5868 5866 5862 5860 5858 5856 5853 5849 5846 5845 5843 5841 5838 5836 5834 5831 5829 5828 5827
5854 5857 5860 5862 5865 5868 5867 5870 5871 5873 5874 5874 5875 5877 5878 5879 5877 5877 5877 5879 5880 5882 5883 5883 5881 5878 5875 5872 5870 5867 5865 5862 5858 5856 5854 5852 5850 5846 5844 5842 5840 5838 5835 5832 5830 5828 5826 5823 5823
5849 5852 5855 5858 5863 5863 5865 5867 5868 5870 5871 5872 5873 5874 5877 5878 5877 5874 5872 5876 5877 5880 5881 5880 5877 5874 5873 5869 5866 5864 5861 5859 5856 5853 5850 5847 5845 5843 5840 5838 5837 5834 5832 5830 5827 5825 5822 5820 5818
5843 5846 5849 5855 5859 5861 5861 5862 5864 5865 5867 5869 5872 5873 5873 5876 5876 5873 5870 5874 5875 5877 5878 5875 5871 5870 5870 5867 5864 5860 5857 5855 5852 5848 5844 5842 5840 5837 5835 5834 5832 5831 5828 5826 5824 5821 5818 5816 5814
5838 5841 5845 5851 5855 5856 5856 5855 5860 5862 5865 5866 5867 5869 5870 5872 5872 5871 5869 5871 5873 5874 5874 5872 5869 5867 5866 5865 5863 5858 5854 5851 5847 5845 5841 5838 5836 5833 5831 5829 5827 5826 5823 5821 5820 5818 5814 5812 5811
5832 5835 5841 5846 5849 5850 5852 5848 5854 5858 5860 5859 5864 5864 5865 5866 5867 5867 5866 5866 5869 5869 5869 5868 5866 5863 5862 5860 5860 5856 5851 5848 5845 5842 5837 5834 5832 5830 5827 5824 5822 5821 5818 5816 5815 5813 5811 5808 5805
5826 5828 5833 5839 5841 5847 5844 5846 5849 5852 5855 5857 5859 5861 5861 5863 5863 5862 5863 5862 5861 5861 5863 5863 5860 5859 5858 5855 5852 5852 5849 5845 5841 5838 5835 5831 5828 5826 5823 5820 5818 5816 5813 5812 5810 5808 5806 5804 5801
5817 5819 5825 5835 5837 5841 5840 5841 5842 5846 5850 5853 5855 5855 5855 5856 5857 5858 5859 5858 5857 5856 5856 5855 5854 5854 5853 5850 5846 5846 5844 5841 5838 5835 5832 5828 5825 5822 5819 5815 5813 5811 5808 5807 5805 5803 5800 5798 5796
5806 5810 5822 5830 5832 5834 5835 5835 5835 5838 5842 5846 5848 5849 5851 5850 5852 5853 5853 5852 5850 5849 5847 5848 5848 5847 5846 5842 5838 5837 5836 5834 5833 5830 5827 5824 5820 5817 5814 5810 5808 5806 5804 5802 5800 5798 5796 5792 5790
5798 5801 5817 5821 5820 5822 5829 5827 5829 5830 5834 5839 5841 5844 5845 5846 5847 5848 5846 5845 5845 5844 5842 5843 5840 5837 5837 5833 5832 5831 5828 5826 5825 5824 5821 5818 5815 5812 5808 5804 5802 5801 5799 5797 5795 5793 5791 5787 5785
5786 5795 5804 5813 5809 5811 5817 5821 5818 5821 5827 5829 5834 5837 5838 5840 5842 5839 5840 5840 5839 5837 5837 5835 5833 5832 5830 5827 5826 5825 5821 5819 5817 5817 5814 5811 5808 5806 5803 5800 5798 5796 5793 5791 5789 5787 5785 5782 5779
5776 5786 5791 5799 5798 5801 5805 5809 5816 5813 5820 5824 5825 5828 5831 5834 5837 5836 5834 5833 5833 5832 5830 5829 5826 5824 5822 5820 5821 5819 5815 5813 5811 5810 5807 5805 5803 5801 5797 5795 5793 5790 5788 5785 5783 5781 5779 5776 5772
5768 5772 5779 5784 5788 5790 5793 5800 5801 5811 5816 5817 5820 5823 5825 5827 5830 5830 5832 5830 5827 5826 5824 5822 5819 5819 5816 5815 5815 5812 5809 5807 5805 5803 5800 5798 5797 5796 5792 5790 5787 5785 5783 5779 5778 5774 5772 5769 5765
5753 5756 5762 5772 5778 5781 5784 5785 5788 5802 5806 5807 5812 5817 5820 5821 5821 5821 5822 5822 5822 5820 5817 5818 5815 5812 5811 5810 5808 5806 5803 5801 5797 5796 5794 5792 5791 5790 5786 5784 5782 5779 5777 5772 5770 5767 5764 5761 5758
5739 5743 5745 5762 5768 5771 5771 5771 5789 5794 5795 5800 5805 5807 5808 5811 5811 5812 5814 5815 5813 5810 5812 5811 5807 5807 5805 5803 5801 5800 5797 5795 5791 5790 5788 5786 5784 5784 5780 5779 5774 5772 5769 5765 5762 5758 5755 5753 5750
5720 5729 5737 5748 5755 5760 5760 5767 5779 5784 5786 5790 5793 5796 5798 5799 5801 5804 5807 5805 5803 5803 5802 5801 5802 5801 5798 5796 5794 5793 5790 5788 5785 5783 5782 5781 5780 5778 5775 5772 5768 5766 5760 5758 5754 5749 5746 5744 5741
5713 5721 5726 5729 5742 5741 5748 5754 5765 5770 5775 5779 5781 5785 5786 5788 5792 5797 5796 5797 5795 5795 5795 5797 5797 5794 5791 5789 5788 5785 5783 5781 5779 5778 5777 5775 5774 5771 5768 5765 5761 5758 5754 5749 5745 5741 5738 5735 5731
5700 5702 5710 5714 5720 5730 5736 5742 5750 5755 5760 5766 5771 5776 5780 5781 5787 5787 5789 5789 5788 5789 5790 5789 5788 5786 5785 5783 5780 5778 5776 5774 5773 5772 5771 5770 5768 5765 5762 5759 5754 5750 5746 5742 5737 5733 5729 5725 5721
5682 5687 5694 5702 5708 5711 5725 5728 5735 5741 5751 5756 5762 5765 5769 5772 5774 5776 5778 5779 5781 5782 5783 5781 5780 5780 5778 5776 5773 5771 5769 5768 5767 5766 5765 5763 5761 5759 5755 5751 5748 5743 5738 5733 5728 5724 5720 5717 5715
5667 5673 5681 5690 5698 5702 5709 5712 5724 5733 5739 5745 5752 5758 5760 5763 5764 5766 5768 5771 5771 5773 5774 5774 5772 5771 5771 5769 5766 5765 5764 5762 5762 5761 5759 5757 5754 5751 5748 5744 5740 5735 5731 5726 5722 5718 5713 5710 5708
5651 5662 5669 5678 5686 5693 5697 5696 5713 5729 5732 5737 5745 5749 5754 5754 5755 5758 5762 5763 5764 5766 5768 5767 5766 5765 5763 5761 5759 5759 5758 5757 5757 5755 5753 5751 5748 5745 5742 5738 5732 5728 5725 5722 5717 5710 5707 5704 5703
5641 5651 5658 5666 5673 5682 5688 5689 5711 5723 5724 5734 5739 5743 5744 5744 5747 5751 5753 5755 5759 5760 5760 5760 5759 5757 5755 5754 5753 5753 5752 5752 5751 5749 5747 5745 5742 5739 5735 5731 5726 5723 5721 5717 5712 5709 5705 5702 5700
5626 5637 5644 5653 5660 5664 5682 5683 5702 5716 5723 5726 5728 5733 5735 5736 5740 5744 5748 5752 5752 5753 5753 5753 5751 5749 5748 5748 5747 5747 5747 5747 5745 5743 5742 5739 5736 5733 5730 5726 5722 5719 5717 5714 5711 5708 5704 5701 5698
5612 5623 5632 5640 5645 5659 5671 5675 5700 5711 5711 5716 5721 5724 5726 5730 5733 5737 5742 5743 5745 5746 5746 5745 5743 5743 5743 5742 5742 5742 5742 5741 5740 5738 5736 5733 5731 5728 5725 5722 5719 5716 5714 5712 5709 5706 5702 5700 5698
5602 5610 5622 5628 5639 5653 5666 5668 5690 5702 5706 5710 5713 5715 5718 5722 5726 5731 5735 5737 5739 5740 5738 5737 5737 5738 5737 5738 5737 5737 5737 5736 5734 5732 5731 5728 5726 5724 5722 5718 5715 5714 5712 5710 5707 5704 5701 5698 5696
5593 5600 5616 5619 5628 5644 5652 5673 5684 5690 5698 5705 5707 5709 5711 5716 5722 5726 5729 5732 5733 5732 5731 5732 5732 5733 5734 5734 5734 5733 5732 5731 5730 5728 5726 5724 5723 5720 5718 5714 5712 5711 5709 5707 5705 5702 5699 5697 5695
5587 5596 5604 5607 5622 5636 5648 5661 5671 5681 5686 5695 5699 5701 5705 5713 5717 5722 5724 5726 5726 5726 5726 5727 5728 5729 5729 5729 5729 5729 5728 5727 5726 5724 5722 5720 5718 5716 5714 5711 5710 5708 5707 5704 5703 5700 5698 5696 5694
5580 5587 5592 5602 5615 5628 5642 5654 5662 5669 5675 5688 5692 5695 5702 5708 5712 5715 5718 5719 5720 5720 5722 5723 5723 5724 5724 5725 5725 5725 5724 5723 5721 5720 5718 5715 5715 5713 5712 5709 5707 5706 5704 5702 5700 5698 5696 5693 5691
5572 5579 5583 5592 5610 5621 5632 5646 5650 5658 5667 5680 5685 5690 5697 5703 5705 5709 5712 5714 5716 5717 5719 5719 5718 5719 5720 5721 5721 5720 5719 5718 5717 5715 5713 5711 5711 5710 5708 5705 5704 5703 5702 5700 5698 5695 5693 5691 5689